sat.trackr.live / text

‹ back to catalog

STARLINK-5909

NORAD 55938 · 2023-037AA

PAYLOAD ACTIVE UNKNOWN

§ Identity

Operator
Country
US
Launch date
2023-03-17
Launch site
AFWTR
Launch vehicle
Mass (kg)
RCS (m²)

Purposes: comms

External: N2YO · Heavens-Above · Gunter

§ Orbital elements

Epoch: 2026-05-25T03:44:48.121728Z

Period
96.11 min
Inclination
70.0000°
Eccentricity
0.0003372
Mean motion
14.98322369 rev/d
Perigee alt
569.7 km
Apogee alt
574.4 km
Semi-major
6,950.2 km
B*
-1.7911e-4
RAAN
91.6799°
Arg perigee
272.2191°
Mean anomaly
87.8582°
Rev number
17,543

§ Raw data

STARLINK-59091 55938U 23037AA  26145.15611252 -.00002229  00000+0 -17911-3 0  99942 55938  70.0000  91.6799 0003372 272.2191  87.8582 14.98322369175434

JSON: /api/v1/satellites/55938 · /tle

For live sub-satellite position, see the globe view (requires WebGL).

§ Visibility from observer

Set your observer location to see the next 7 days of passes ≥ 10°. The values pass through the URL so the page stays shareable.

No JS? Fill the form by hand. The geolocation button needs JavaScript.